Flag for Eritrea Weather past 2 weeks in Keren, Eritrea

Now
91 °F

Passing clouds.


Feels Like: 103 °F
Forecast: 66 / 92 °F
Wind: 12 mph from Southwest

Location: Gizan

Current Time: Mar 27, 2015 at 5:05:40 PM

Latest Report: Mar 27, 2015 at 4:00 PM


Visibility: N/A

Pressure: 29.77 "Hg

Humidity: 59%

Dew point: 75 °F

Location of KerenLocation

Historic Weather in Keren — Graph

°F

Keren temperature yesterday

Maximum temperature yesterday: 91 °F (at 3:00 PM)
Minimum temperature yesterday: 81 °F (at 5:00 AM)
Average temperature yesterday: 86 °F

Past Weeks' High & Low Weather Summary

 TemperatureHumidityPressure
High95 °F (Mar 24, 2:00 PM)89% (Mar 23, 7:00 AM)29.95 "Hg (Mar 23, 7:00 AM)
Low77 °F (Mar 17, 4:00 AM)41% (Mar 24, 3:00 PM)29.74 "Hg (Mar 19, 4:00 AM)
Average85 °F67%29.85 "Hg
* Reported Mar 12 4:00 PM — Mar 27 4:00 PM, Keren, Weather by CustomWeather, © 2015

Note: Actual official high and low records may vary slightly from our data, if they occured in-between our weather recording intervals... More about our weather records

Advertising

Keren weather history for previous 24 hours

 ConditionsComfort  
Time TempWeatherWind HumidityBarometerVisibility
4:00 PM
Fri, Mar 27
91 °FPassing clouds.12 mph59%29.77 "HgN/A
3:00 PM90 °FPassing clouds.14 mph63%29.74 "Hg6 mi
2:00 PM90 °FPassing clouds.18 mph67%29.77 "Hg6 mi
1:00 PM91 °FPassing clouds.18 mph63%29.80 "HgN/A
12:00 PM91 °FPassing clouds.16 mph63%29.83 "HgN/A
11:00 AM91 °FPassing clouds.16 mph67%29.86 "HgN/A
10:00 AM90 °FSunny.16 mph71%29.89 "Hg10 mi
9:00 AM88 °FSunny.7 mph70%29.86 "Hg10 mi
8:00 AM90 °FSunny.7 mph59%29.86 "Hg10 mi
7:00 AM82 °FSunny.No wind70%29.83 "Hg10 mi
6:00 AM81 °FClear.No wind70%29.80 "Hg10 mi
5:00 AM81 °FClear.No wind70%29.80 "Hg10 mi
4:00 AM81 °FClear.5 mph70%29.80 "Hg10 mi
3:00 AM81 °FClear.No wind70%29.80 "Hg10 mi
2:00 AM81 °FClear.No wind70%29.80 "Hg10 mi
1:00 AM82 °FClear.3 mph66%29.83 "Hg10 mi
12:00 AM82 °FClear.5 mph70%29.86 "Hg10 mi
11:00 PM
Thu, Mar 26
84 °FPassing clouds.3 mph70%29.86 "HgN/A
10:00 PM86 °FPassing clouds.3 mph70%29.86 "HgN/A
9:00 PM86 °FPassing clouds.3 mph70%29.86 "HgN/A
8:00 PM88 °FPassing clouds.5 mph66%29.83 "HgN/A
7:00 PM90 °FPassing clouds.5 mph63%29.83 "HgN/A
6:00 PM90 °FPassing clouds.7 mph63%29.83 "HgN/A
5:00 PM91 °FPassing clouds.7 mph59%29.83 "HgN/A
Weather by CustomWeather, © 2015

See weather overviewHow to use our weather pages